TimeAKST,TemperatureF,Dew PointF,Humidity,Sea Level PressureIn,VisibilityMPH,Wind Direction,Wind SpeedMPH,Gust SpeedMPH,PrecipitationIn,Events,Conditions,WindDirDegrees,DateUTC
12:16 AM,35.6,32.0,87,30.27,5.0,NW,16.1,23.0,N/A,,Mostly Cloudy,310,2013-11-11 09:16:00
12:36 AM,33.8,33.8,100,30.27,10.0,NNW,10.4,-,N/A,,Mostly Cloudy,340,2013-11-11 09:36:00
12:56 AM,33.8,33.8,100,30.27,10.0,NNW,8.1,-,N/A,,Overcast,330,2013-11-11 09:56:00
1:16 AM,33.8,32.0,93,30.27,10.0,NNW,5.8,-,N/A,,Overcast,330,2013-11-11 10:16:00
1:36 AM,33.8,32.0,93,30.27,10.0,NNW,9.2,-,N/A,,Overcast,330,2013-11-11 10:36:00
1:56 AM,35.6,33.8,93,30.27,10.0,NW,8.1,-,N/A,,Overcast,320,2013-11-11 10:56:00
2:16 AM,35.6,33.8,93,30.27,10.0,WNW,11.5,-,N/A,,Mostly Cloudy,300,2013-11-11 11:16:00
2:36 AM,35.6,33.8,93,30.28,10.0,NW,6.9,-,N/A,,Scattered Clouds,310,2013-11-11 11:36:00
2:56 AM,35.6,33.8,93,30.29,10.0,NW,19.6,23.0,N/A,,Overcast,310,2013-11-11 11:56:00
3:16 AM,33.8,33.8,100,30.30,7.0,NW,15.0,-,N/A,,Mostly Cloudy,320,2013-11-11 12:16:00
3:36 AM,33.8,33.8,100,30.30,10.0,NW,12.7,-,N/A,,Mostly Cloudy,320,2013-11-11 12:36:00
3:56 AM,33.8,33.8,100,30.30,10.0,NNW,12.7,-,N/A,,Mostly Cloudy,330,2013-11-11 12:56:00
4:16 AM,33.8,33.8,100,30.31,10.0,NNW,10.4,-,N/A,,Mostly Cloudy,340,2013-11-11 13:16:00
4:36 AM,33.8,33.8,100,30.33,5.0,NNW,20.7,28.8,N/A,,Mostly Cloudy,340,2013-11-11 13:36:00
4:56 AM,33.8,33.8,100,30.33,10.0,NNW,17.3,-,N/A,,Mostly Cloudy,340,2013-11-11 13:56:00
5:16 AM,35.6,30.2,81,30.34,10.0,NW,15.0,-,N/A,,Scattered Clouds,310,2013-11-11 14:16:00
5:36 AM,35.6,30.2,81,30.34,10.0,NNW,25.3,33.4,N/A,,Mostly Cloudy,330,2013-11-11 14:36:00
5:56 AM,35.6,28.4,75,30.35,10.0,NNW,25.3,31.1,N/A,,Scattered Clouds,330,2013-11-11 14:56:00
6:16 AM,33.8,30.2,87,30.37,9.0,NNW,26.5,35.7,N/A,,Mostly Cloudy,340,2013-11-11 15:16:00
6:36 AM,33.8,32.0,93,30.37,3.0,NNW,18.4,-,N/A,,Mostly Cloudy,330,2013-11-11 15:36:00
6:56 AM,33.8,32.0,93,30.37,10.0,NW,15.0,-,N/A,,Scattered Clouds,310,2013-11-11 15:56:00
7:16 AM,33.8,32.0,93,30.38,9.0,NW,19.6,-,N/A,,Mostly Cloudy,320,2013-11-11 16:16:00
7:36 AM,33.8,30.2,87,30.38,9.0,NW,16.1,20.7,N/A,,Scattered Clouds,310,2013-11-11 16:36:00
7:56 AM,33.8,28.4,81,30.39,10.0,NNW,16.1,-,N/A,,Partly Cloudy,330,2013-11-11 16:56:00
8:16 AM,33.8,30.2,87,30.39,3.0,NW,16.1,33.4,N/A,,Mostly Cloudy,320,2013-11-11 17:16:00
8:36 AM,33.8,28.4,81,30.39,9.0,NNW,16.1,19.6,N/A,,Partly Cloudy,330,2013-11-11 17:36:00
8:56 AM,35.6,28.4,75,30.39,10.0,NNW,19.6,23.0,N/A,,Mostly Cloudy,330,2013-11-11 17:56:00
9:16 AM,35.6,28.4,75,30.39,10.0,NNW,20.7,24.2,N/A,,Mostly Cloudy,330,2013-11-11 18:16:00
9:36 AM,35.6,28.4,75,30.39,10.0,NW,18.4,-,N/A,,Mostly Cloudy,320,2013-11-11 18:36:00
9:56 AM,35.6,26.6,70,30.39,10.0,NNW,20.7,26.5,N/A,,Mostly Cloudy,330,2013-11-11 18:56:00
10:16 AM,35.6,26.6,70,30.39,10.0,NNW,19.6,25.3,N/A,,Mostly Cloudy,330,2013-11-11 19:16:00
10:36 AM,35.6,26.6,70,30.39,10.0,NNW,23.0,32.2,N/A,,Mostly Cloudy,340,2013-11-11 19:36:00
10:56 AM,33.8,30.2,87,30.40,10.0,NNW,19.6,-,N/A,,Mostly Cloudy,330,2013-11-11 19:56:00
11:16 AM,35.6,28.4,75,30.40,10.0,NNW,15.0,-,N/A,,Mostly Cloudy,330,2013-11-11 20:16:00
11:36 AM,33.8,30.2,87,30.41,8.0,NNW,21.9,-,N/A,,Mostly Cloudy,330,2013-11-11 20:36:00
11:56 AM,35.6,30.2,81,30.40,10.0,NNW,19.6,27.6,N/A,,Mostly Cloudy,340,2013-11-11 20:56:00
12:16 PM,37.4,28.4,70,30.40,10.0,NNW,27.6,31.1,N/A,,Mostly Cloudy,330,2013-11-11 21:16:00
12:36 PM,35.6,28.4,75,30.40,10.0,NNW,28.8,34.5,N/A,,Mostly Cloudy,330,2013-11-11 21:36:00
12:56 PM,35.6,30.2,81,30.39,10.0,NNW,28.8,34.5,N/A,,Mostly Cloudy,340,2013-11-11 21:56:00
1:16 PM,37.4,30.2,75,30.39,10.0,North,21.9,-,N/A,,Mostly Cloudy,350,2013-11-11 22:16:00
1:36 PM,37.4,30.2,75,30.39,10.0,North,26.5,39.1,N/A,,Mostly Cloudy,350,2013-11-11 22:36:00
1:56 PM,35.6,30.2,81,30.39,10.0,NNW,31.1,39.1,N/A,,Mostly Cloudy,340,2013-11-11 22:56:00
2:16 PM,35.6,30.2,81,30.38,8.0,North,28.8,39.1,N/A,,Mostly Cloudy,350,2013-11-11 23:16:00
2:36 PM,35.6,30.2,81,30.38,10.0,NNW,24.2,-,N/A,,Mostly Cloudy,330,2013-11-11 23:36:00
2:56 PM,37.4,30.2,75,30.38,10.0,NNW,31.1,36.8,N/A,,Mostly Cloudy,330,2013-11-11 23:56:00
3:16 PM,37.4,30.2,75,30.37,10.0,NNW,29.9,33.4,N/A,,Mostly Cloudy,330,2013-11-12 00:16:00
3:36 PM,37.4,28.4,70,30.37,10.0,NNW,33.4,38.0,N/A,,Mostly Cloudy,330,2013-11-12 00:36:00
3:56 PM,37.4,30.2,75,30.36,10.0,NNW,34.5,41.4,N/A,,Mostly Cloudy,340,2013-11-12 00:56:00
4:16 PM,35.6,30.2,81,30.35,10.0,NNW,32.2,38.0,N/A,,Mostly Cloudy,340,2013-11-12 01:16:00
4:36 PM,35.6,30.2,81,30.35,10.0,NNW,33.4,41.4,N/A,,Mostly Cloudy,340,2013-11-12 01:36:00
4:56 PM,35.6,30.2,81,30.35,10.0,NNW,29.9,39.1,N/A,,Mostly Cloudy,340,2013-11-12 01:56:00
5:16 PM,35.6,30.2,81,30.35,10.0,NNW,35.7,41.4,N/A,,Mostly Cloudy,340,2013-11-12 02:16:00
5:36 PM,37.4,28.4,70,30.37,10.0,NNW,32.2,38.0,N/A,,Mostly Cloudy,330,2013-11-12 02:36:00
5:56 PM,-9999,-9999,N/A,30.38,10.0,NNW,24.2,-,N/A,,Mostly Cloudy,330,2013-11-12 02:56:00
6:16 PM,35.6,30.2,81,30.40,10.0,NNW,20.7,29.9,N/A,,Mostly Cloudy,340,2013-11-12 03:16:00
6:36 PM,35.6,30.2,81,30.40,10.0,NNW,15.0,20.7,N/A,,Mostly Cloudy,330,2013-11-12 03:36:00
6:56 PM,35.6,28.4,75,30.40,10.0,NNW,18.4,-,N/A,,Mostly Cloudy,330,2013-11-12 03:56:00
7:16 PM,37.4,28.4,70,30.39,10.0,NNW,25.3,-,N/A,,Mostly Cloudy,340,2013-11-12 04:16:00
7:36 PM,37.4,28.4,70,30.39,10.0,NNW,24.2,27.6,N/A,,Mostly Cloudy,330,2013-11-12 04:36:00
7:56 PM,37.4,28.4,70,30.40,-9999.0,NNW,17.3,23.0,N/A,,Mostly Cloudy,340,2013-11-12 04:56:00
8:16 PM,37.4,28.4,70,30.39,10.0,NNW,20.7,25.3,N/A,,Overcast,340,2013-11-12 05:16:00
8:36 PM,37.4,28.4,70,30.40,10.0,NNW,17.3,24.2,N/A,,Overcast,330,2013-11-12 05:36:00
8:56 PM,37.4,28.4,70,30.40,10.0,NNW,18.4,-,N/A,,Overcast,330,2013-11-12 05:56:00
9:16 PM,37.4,28.4,70,30.40,10.0,NNW,16.1,23.0,N/A,,Overcast,340,2013-11-12 06:16:00
9:36 PM,37.4,28.4,70,30.40,10.0,NNW,20.7,25.3,N/A,,Overcast,330,2013-11-12 06:36:00
9:56 PM,37.4,28.4,70,30.41,10.0,NNW,20.7,-,N/A,,Overcast,330,2013-11-12 06:56:00
10:16 PM,37.4,28.4,70,30.39,10.0,NNW,23.0,27.6,N/A,,Overcast,330,2013-11-12 07:16:00
10:36 PM,37.4,28.4,70,30.40,10.0,NNW,23.0,27.6,N/A,,Overcast,340,2013-11-12 07:36:00
10:56 PM,37.4,28.4,70,30.39,10.0,NNW,25.3,-,N/A,,Mostly Cloudy,340,2013-11-12 07:56:00
11:16 PM,37.4,28.4,70,30.39,10.0,NNW,24.2,27.6,N/A,,Scattered Clouds,330,2013-11-12 08:16:00
11:36 PM,37.4,28.4,70,30.40,10.0,NW,15.0,-,N/A,,Mostly Cloudy,320,2013-11-12 08:36:00
11:56 PM,37.4,28.4,70,30.40,10.0,NNW,15.0,-,N/A,,Overcast,330,2013-11-12 08:56:00